Location: Dos Palmas
(32.4468°N, 116.8732°W)
Time: 00:29:24
(UTC+00:00)

Cosmos 1809 Rocket - Pass Details

Date: 20 June 2021
Orbit: 940 x 964 km, 82.5° (Epoch: 01 August)

Event Time Altitude Azimuth Distance (km) Brightness Sun altitude
Exits shadow 10:23:22 48° 221° (SW) 1,229 4.6 -23.1°
Maximum altitude 10:24:55 64° 277° (W) 1,054 4.5 -22.9°
Drops below altitude 10° 10:31:04 10° 359° (N) 2,702 7.5 -22.1°
Sets 10:33:37 0° 3° (N) 3,653 8.3 -21.7°
